EZY16KW EGAA-EGBB

Flight info

Callsign EZY16KW
Flight time 0h 42m
Altitude 25000
Route LISBO L603 PEPOD Q38 MAKUX
Aircraft A320/M-SDE3FGHIRWY/LB1

Departure

Time 2026-05-06 16:00
Airport Belfast International Airport (EGAA)

Arrival

Time 2026-05-06 16:42
Airport Birmingham Airport (EGBB)
Time Latitude Longitude Altitude Speed Heading
2026-05-06 15:20 54.65996 -6.21771 272 ft 0 kts 245°
2026-05-06 15:49 54.66001 -6.21752 272 ft 4 kts 245°
2026-05-06 15:50 54.66013 -6.21710 275 ft 4 kts 245°
2026-05-06 15:50 54.66023 -6.21674 274 ft 4 kts 258°
2026-05-06 15:50 54.66017 -6.21640 276 ft 4 kts 330°
2026-05-06 15:50 54.65993 -6.21621 274 ft 4 kts 335°
2026-05-06 15:51 54.65968 -6.21604 273 ft 4 kts 353°
2026-05-06 15:51 54.65942 -6.21606 272 ft 4 kts 22°
2026-05-06 15:51 54.65920 -6.21632 274 ft 4 kts 55°
2026-05-06 15:51 54.65908 -6.21669 275 ft 4 kts 66°
2026-05-06 15:52 54.65900 -6.21701 273 ft 0 kts 65°
2026-05-06 15:54 54.65912 -6.21655 272 ft 7 kts 65°
2026-05-06 15:55 54.65931 -6.21587 275 ft 6 kts 65°
2026-05-06 15:55 54.65963 -6.21466 272 ft 18 kts 65°
2026-05-06 15:55 54.66019 -6.21258 273 ft 20 kts 65°
2026-05-06 15:55 54.66078 -6.21037 272 ft 21 kts 65°
2026-05-06 15:56 54.66143 -6.20797 276 ft 23 kts 65°
2026-05-06 15:56 54.66212 -6.20541 272 ft 24 kts 65°
2026-05-06 15:56 54.66278 -6.20295 272 ft 21 kts 65°
2026-05-06 15:56 54.66339 -6.20068 272 ft 20 kts 65°
2026-05-06 15:57 54.66388 -6.19888 276 ft 14 kts 68°
2026-05-06 15:57 54.66372 -6.19732 272 ft 11 kts 131°
2026-05-06 15:57 54.66365 -6.19721 272 ft 0 kts 141°
2026-05-06 15:58 54.66354 -6.19708 272 ft 6 kts 145°
2026-05-06 15:58 54.66310 -6.19670 272 ft 8 kts 155°
2026-05-06 15:58 54.66260 -6.19696 272 ft 8 kts 234°
2026-05-06 15:59 54.66251 -6.19724 276 ft 0 kts 243°
2026-05-06 15:59 54.66219 -6.19838 273 ft 39 kts 244°
2026-05-06 15:59 54.65994 -6.20674 272 ft 110 kts 245°
2026-05-06 16:00 54.65595 -6.22155 285 ft 161 kts 245°
2026-05-06 16:00 54.65170 -6.23895 951 ft 154 kts 243°
2026-05-06 16:00 54.64724 -6.25592 1686 ft 159 kts 240°
2026-05-06 16:00 54.64063 -6.27213 2111 ft 174 kts 208°
2026-05-06 16:01 54.62855 -6.27739 2459 ft 192 kts 175°
2026-05-06 16:01 54.61573 -6.26775 2824 ft 219 kts 138°
2026-05-06 16:01 54.60506 -6.24694 3306 ft 242 kts 133°
2026-05-06 16:01 54.59403 -6.22417 4111 ft 251 kts 132°
2026-05-06 16:02 54.58277 -6.20078 5018 ft 257 kts 133°
2026-05-06 16:02 54.57137 -6.17718 5850 ft 262 kts 131°
2026-05-06 16:02 54.55956 -6.15278 6665 ft 268 kts 131°
2026-05-06 16:02 54.54743 -6.12785 7456 ft 274 kts 133°
2026-05-06 16:03 54.53502 -6.10244 8244 ft 281 kts 132°
2026-05-06 16:03 54.52229 -6.07639 9017 ft 287 kts 133°
2026-05-06 16:03 54.50932 -6.04990 9836 ft 293 kts 132°
2026-05-06 16:03 54.49592 -6.02259 10362 ft 308 kts 132°
2026-05-06 16:04 54.48159 -5.99345 10618 ft 331 kts 132°
2026-05-06 16:04 54.46660 -5.96298 11117 ft 343 kts 132°
2026-05-06 16:04 54.45105 -5.93149 11822 ft 348 kts 132°
2026-05-06 16:04 54.43529 -5.89957 12542 ft 352 kts 132°
2026-05-06 16:05 54.41934 -5.86728 13272 ft 357 kts 132°
2026-05-06 16:05 54.40320 -5.83462 13984 ft 361 kts 132°
2026-05-06 16:05 54.38687 -5.80158 14627 ft 364 kts 132°
2026-05-06 16:05 54.37041 -5.76828 15269 ft 368 kts 132°
2026-05-06 16:06 54.35373 -5.73467 15905 ft 372 kts 132°
2026-05-06 16:06 54.33708 -5.70124 16533 ft 376 kts 132°
2026-05-06 16:06 54.32001 -5.66700 17159 ft 380 kts 132°
2026-05-06 16:06 54.30277 -5.63250 17783 ft 383 kts 132°
2026-05-06 16:07 54.28536 -5.59769 18386 ft 387 kts 133°
2026-05-06 16:07 54.26787 -5.56234 18913 ft 391 kts 131°
2026-05-06 16:07 54.25106 -5.52545 19445 ft 395 kts 128°
2026-05-06 16:07 54.23488 -5.48732 19983 ft 398 kts 126°
2026-05-06 16:08 54.21893 -5.44839 20522 ft 401 kts 126°
2026-05-06 16:08 54.20293 -5.40903 21060 ft 405 kts 126°
2026-05-06 16:08 54.18671 -5.36952 21590 ft 408 kts 126°
2026-05-06 16:08 54.17041 -5.33042 22119 ft 411 kts 126°
2026-05-06 16:09 54.15363 -5.29071 22643 ft 414 kts 126°
2026-05-06 16:09 54.13663 -5.25077 23156 ft 418 kts 126°
2026-05-06 16:09 54.11949 -5.21058 23642 ft 421 kts 126°
2026-05-06 16:09 54.10216 -5.17010 24050 ft 424 kts 126°
2026-05-06 16:10 54.08471 -5.12947 24463 ft 426 kts 126°
2026-05-06 16:10 54.06717 -5.08861 24851 ft 429 kts 126°
2026-05-06 16:10 54.04952 -5.04751 24995 ft 429 kts 126°
2026-05-06 16:10 54.03212 -5.00697 25025 ft 420 kts 126°
2026-05-06 16:11 54.01516 -4.96756 25021 ft 417 kts 126°
2026-05-06 16:11 53.99799 -4.92788 25021 ft 416 kts 126°
2026-05-06 16:11 53.98085 -4.88828 25027 ft 416 kts 126°
2026-05-06 16:11 53.96372 -4.84866 25029 ft 416 kts 126°
2026-05-06 16:12 53.94664 -4.80910 25032 ft 416 kts 126°
2026-05-06 16:12 53.92953 -4.76956 25035 ft 416 kts 126°
2026-05-06 16:12 53.91236 -4.73003 25026 ft 416 kts 127°
2026-05-06 16:12 53.89519 -4.69059 25026 ft 416 kts 127°
2026-05-06 16:13 53.87800 -4.65122 25028 ft 416 kts 127°
2026-05-06 16:13 53.86106 -4.61242 25022 ft 416 kts 127°
2026-05-06 16:13 53.84380 -4.57310 25033 ft 415 kts 127°
2026-05-06 16:13 53.82656 -4.53388 25018 ft 415 kts 127°
2026-05-06 16:14 53.80933 -4.49463 25033 ft 415 kts 127°
2026-05-06 16:14 53.79213 -4.45543 25016 ft 415 kts 127°
2026-05-06 16:14 53.77493 -4.41624 25014 ft 415 kts 127°
2026-05-06 16:14 53.75772 -4.37715 25011 ft 415 kts 127°
2026-05-06 16:15 53.74045 -4.33808 25020 ft 415 kts 127°
2026-05-06 16:15 53.72343 -4.29962 25021 ft 415 kts 127°
2026-05-06 16:15 53.70614 -4.26062 25021 ft 414 kts 127°
2026-05-06 16:15 53.68888 -4.22174 25023 ft 414 kts 128°
2026-05-06 16:16 53.67158 -4.18282 25021 ft 415 kts 128°
2026-05-06 16:16 53.65425 -4.14396 25024 ft 415 kts 128°
2026-05-06 16:16 53.63693 -4.10514 25020 ft 415 kts 128°
2026-05-06 16:16 53.61961 -4.06627 25023 ft 415 kts 128°
2026-05-06 16:17 53.60231 -4.02740 25022 ft 415 kts 128°
2026-05-06 16:17 53.58524 -3.98912 25025 ft 415 kts 128°
2026-05-06 16:17 53.56788 -3.95032 25024 ft 415 kts 128°
2026-05-06 16:17 53.55052 -3.91162 25025 ft 415 kts 128°
2026-05-06 16:18 53.53314 -3.87296 25022 ft 414 kts 128°
2026-05-06 16:18 53.51575 -3.83437 25023 ft 414 kts 128°
2026-05-06 16:18 53.49833 -3.79581 25022 ft 414 kts 128°
2026-05-06 16:18 53.48093 -3.75736 25025 ft 414 kts 128°
2026-05-06 16:19 53.46349 -3.71889 25023 ft 414 kts 128°
2026-05-06 16:19 53.44626 -3.68101 25024 ft 413 kts 128°
2026-05-06 16:19 53.42882 -3.64270 25021 ft 413 kts 128°
2026-05-06 16:19 53.41134 -3.60449 25021 ft 413 kts 129°
2026-05-06 16:20 53.39324 -3.56724 25020 ft 412 kts 131°
2026-05-06 16:20 53.37446 -3.53094 25017 ft 412 kts 133°
2026-05-06 16:20 53.35538 -3.49529 25016 ft 411 kts 133°
2026-05-06 16:20 53.33618 -3.45980 25014 ft 411 kts 134°
2026-05-06 16:21 53.31704 -3.42430 25018 ft 411 kts 133°
2026-05-06 16:21 53.29799 -3.38869 25014 ft 411 kts 133°
2026-05-06 16:21 53.27928 -3.35341 25014 ft 411 kts 133°
2026-05-06 16:21 53.26041 -3.31760 25018 ft 411 kts 133°
2026-05-06 16:22 53.24155 -3.28176 25017 ft 411 kts 133°
2026-05-06 16:22 53.22250 -3.24567 25029 ft 419 kts 133°
2026-05-06 16:22 53.20309 -3.20899 25027 ft 423 kts 132°
2026-05-06 16:22 53.18552 -3.16953 25029 ft 425 kts 123°
2026-05-06 16:23 53.16979 -3.12794 24912 ft 422 kts 123°
2026-05-06 16:23 53.15420 -3.08672 24356 ft 420 kts 123°
2026-05-06 16:23 53.13862 -3.04565 23764 ft 419 kts 123°
2026-05-06 16:23 53.12330 -3.00531 23100 ft 418 kts 123°
2026-05-06 16:24 53.10775 -2.96441 22373 ft 418 kts 123°
2026-05-06 16:24 53.09217 -2.92356 21621 ft 419 kts 123°
2026-05-06 16:24 53.07646 -2.88257 20886 ft 420 kts 124°
2026-05-06 16:24 53.06007 -2.84241 20262 ft 419 kts 126°
2026-05-06 16:25 53.04320 -2.80386 20119 ft 405 kts 128°
2026-05-06 16:25 53.02648 -2.76707 19881 ft 395 kts 128°
2026-05-06 16:25 53.00991 -2.73109 19475 ft 390 kts 128°
2026-05-06 16:25 52.99354 -2.69545 19029 ft 387 kts 128°
2026-05-06 16:26 52.97737 -2.65991 18581 ft 384 kts 128°
2026-05-06 16:26 52.96160 -2.62500 18114 ft 382 kts 128°
2026-05-06 16:26 52.94579 -2.58981 17607 ft 379 kts 127°
2026-05-06 16:26 52.93009 -2.55486 17128 ft 377 kts 127°
2026-05-06 16:27 52.91451 -2.52015 16651 ft 374 kts 127°
2026-05-06 16:27 52.89903 -2.48569 16194 ft 371 kts 127°
2026-05-06 16:27 52.88364 -2.45151 15745 ft 369 kts 127°
2026-05-06 16:27 52.86832 -2.41757 15303 ft 366 kts 127°
2026-05-06 16:28 52.85311 -2.38396 14868 ft 364 kts 127°
2026-05-06 16:28 52.83818 -2.35096 14443 ft 362 kts 127°
2026-05-06 16:28 52.82315 -2.31783 14026 ft 359 kts 127°
2026-05-06 16:28 52.80784 -2.28534 13576 ft 357 kts 129°
2026-05-06 16:29 52.79196 -2.25405 13113 ft 354 kts 131°
2026-05-06 16:29 52.77579 -2.22353 12641 ft 352 kts 131°
2026-05-06 16:29 52.75923 -2.19407 12289 ft 345 kts 139°
2026-05-06 16:29 52.73944 -2.17321 12132 ft 333 kts 154°
2026-05-06 16:30 52.71864 -2.15711 11819 ft 327 kts 158°
2026-05-06 16:30 52.70484 -2.14746 11610 ft 324 kts 158°
2026-05-06 16:30 52.67711 -2.12842 11203 ft 321 kts 158°
2026-05-06 16:30 52.65682 -2.11454 10876 ft 320 kts 158°
2026-05-06 16:31 52.63633 -2.10057 10530 ft 318 kts 158°
2026-05-06 16:31 52.61597 -2.08674 10186 ft 315 kts 158°
2026-05-06 16:31 52.59583 -2.07313 9841 ft 311 kts 158°
2026-05-06 16:31 52.57588 -2.05970 9461 ft 308 kts 158°
2026-05-06 16:32 52.55613 -2.04649 9088 ft 305 kts 158°
2026-05-06 16:32 52.53657 -2.03347 8714 ft 302 kts 158°
2026-05-06 16:32 52.51768 -2.01898 8349 ft 298 kts 152°
2026-05-06 16:32 52.49989 -2.00280 7996 ft 295 kts 150°
2026-05-06 16:33 52.48209 -1.98641 7640 ft 292 kts 150°
2026-05-06 16:33 52.46446 -1.97031 7284 ft 288 kts 150°
2026-05-06 16:33 52.44700 -1.95450 6935 ft 285 kts 150°
2026-05-06 16:34 52.41255 -1.92370 6233 ft 279 kts 150°
2026-05-06 16:34 52.39557 -1.90865 5866 ft 276 kts 150°
2026-05-06 16:34 52.37873 -1.89383 5500 ft 273 kts 150°
2026-05-06 16:34 52.36230 -1.87946 5140 ft 270 kts 150°
2026-05-06 16:35 52.34579 -1.86507 4782 ft 267 kts 150°
2026-05-06 16:35 52.32946 -1.85081 4419 ft 264 kts 150°
2026-05-06 16:35 52.31336 -1.83675 4109 ft 260 kts 150°
2026-05-06 16:35 52.29756 -1.82302 3797 ft 255 kts 150°
2026-05-06 16:36 52.28200 -1.80950 3495 ft 252 kts 150°
2026-05-06 16:36 52.26830 -1.79272 3263 ft 242 kts 128°
2026-05-06 16:36 52.26027 -1.76972 3103 ft 228 kts 103°
2026-05-06 16:36 52.25864 -1.74498 2945 ft 214 kts 81°
2026-05-06 16:37 52.26258 -1.72275 2792 ft 203 kts 59°
2026-05-06 16:37 52.27096 -1.70478 2636 ft 198 kts 39°
2026-05-06 16:37 52.28242 -1.69263 2482 ft 196 kts 26°
2026-05-06 16:37 52.29444 -1.68209 2328 ft 196 kts 27°
2026-05-06 16:38 52.30635 -1.67156 2182 ft 192 kts 27°
2026-05-06 16:38 52.31790 -1.66127 2070 ft 185 kts 27°
2026-05-06 16:38 52.32898 -1.65138 1988 ft 178 kts 27°
2026-05-06 16:38 52.34014 -1.64318 2019 ft 175 kts 13°
2026-05-06 16:39 52.35209 -1.64186 2031 ft 176 kts 353°
2026-05-06 16:39 52.36358 -1.64814 2000 ft 176 kts 331°
2026-05-06 16:39 52.37373 -1.65922 1999 ft 173 kts 328°
2026-05-06 16:39 52.38340 -1.66991 1870 ft 162 kts 328°
2026-05-06 16:40 52.39241 -1.67989 1716 ft 147 kts 328°
2026-05-06 16:40 52.40062 -1.68898 1514 ft 138 kts 328°
2026-05-06 16:40 52.40845 -1.69764 1324 ft 135 kts 328°
2026-05-06 16:40 52.41628 -1.70631 1121 ft 136 kts 330°
2026-05-06 16:41 52.42410 -1.71499 922 ft 137 kts 329°
2026-05-06 16:41 52.43203 -1.72378 725 ft 138 kts 330°
2026-05-06 16:41 52.43986 -1.73247 540 ft 138 kts 329°
2026-05-06 16:41 52.44776 -1.74138 334 ft 137 kts 330°
2026-05-06 16:42 52.45444 -1.74868 325 ft 91 kts 324°
2026-05-06 16:42 52.45838 -1.75306 326 ft 53 kts 326°
2026-05-06 16:42 52.46045 -1.75538 318 ft 26 kts 326°
2026-05-06 16:42 52.46159 -1.75595 315 ft 17 kts 38°
2026-05-06 16:43 52.46196 -1.75511 314 ft 5 kts 54°
2026-05-06 16:43 52.46217 -1.75461 313 ft 7 kts 60°
2026-05-06 16:43 52.46156 -1.75336 314 ft 19 kts 145°
2026-05-06 16:43 52.46057 -1.75226 320 ft 16 kts 145°
2026-05-06 16:44 52.45971 -1.75129 324 ft 14 kts 147°
2026-05-06 16:44 52.45904 -1.75053 324 ft 10 kts 145°
2026-05-06 16:44 52.45844 -1.74986 326 ft 14 kts 146°
2026-05-06 16:44 52.45731 -1.74858 327 ft 21 kts 146°
2026-05-06 16:45 52.45614 -1.74731 325 ft 19 kts 149°
2026-05-06 16:45 52.45503 -1.74609 327 ft 20 kts 146°
2026-05-06 16:45 52.45435 -1.74451 328 ft 14 kts 117°
2026-05-06 16:45 52.45389 -1.74298 330 ft 16 kts 116°
2026-05-06 16:46 52.45337 -1.74128 331 ft 18 kts 116°
2026-05-06 16:46 52.45275 -1.73976 330 ft 17 kts 143°
2026-05-06 16:46 52.45191 -1.73882 329 ft 13 kts 146°
2026-05-06 16:46 52.45121 -1.73802 331 ft 11 kts 144°
2026-05-06 16:47 52.45114 -1.73694 330 ft 11 kts 62°
2026-05-06 16:47 52.45159 -1.73585 328 ft 11 kts 56°
2026-05-06 16:47 52.45192 -1.73498 327 ft 7 kts 78°
2026-05-06 16:47 52.45157 -1.73450 329 ft 6 kts 147°
2026-05-06 16:48 52.45144 -1.73435 329 ft 0 kts 146°